Regional Weather Roundup
Issued by NWS

Home | Current Version | Previous Version | Text Only | Print | Product List | Glossary On
Versions: 1 2 3 4 5 6 7 8 9 10 11 12 13 14 15 16 17 18 19 20 21 22 23 24 25 26 27 28 29 30 31 32 33 34 35 36 37 38 39 40 41 42 43 44 45 46 47 48 49 50
000
ASUS45 KTFX 241010
RWRMT
MONTANA REGIONAL WEATHER ROUNDUP
NATIONAL WEATHER SERVICE GREAT FALLS MT
400 AM MDT TUE OCT 24 2017

NOTE: "FAIR" INDICATES FEW OR NO CLOUDS BELOW 12000 FEET WITH NO
SIGNIFICANT WEATHER AND/OR OBSTRUCTIONS TO VISIBILITY.

MTZ001>007-043-241100-
WEST OF THE DIVIDE

CITY           SKY/WX    TMP DP  RH WIND       PRES   REMARKS
KALISPELL      PTCLDY    28  28 100 CALM      30.69R
MISSOULA       CLEAR     31  28  89 CALM      30.72S
BUTTE          CLOUDY    27  23  85 E3        30.67F
MULLAN PASS    CLEAR     36  24  62 SW7       30.67F WCI  30
DEER LODGE       N/A     27  25  93 CALM      30.70F
EUREKA           N/A     30  27  86 MISG      30.69R
HAMILTON         N/A     34  28  80 E3        30.70S
LIBBY            N/A     28  28 100 CALM      30.71R
PLAINS           N/A     30  25  82 CALM      30.66S
RONAN            N/A     32  28  85 CALM      30.66F
THOMPSON FALLS   N/A     31  29  92 CALM      30.71S VSB 0
$$

MTZ008-052>055-241100-
SOUTHWEST MONTANA

CITY           SKY/WX    TMP DP  RH WIND       PRES   REMARKS
BOZEMAN        CLOUDY    28  22  78 SE6       30.64F WCI  22
DILLON         CLOUDY    34  19  54 S7        30.66F WCI  28
W YELLOWSTONE  CLOUDY    19  19 100 CALM      30.69F
ENNIS          CLOUDY    27  21  80 CALM      30.70F
THREE FORKS      N/A     22  17  81 SW1       30.55F
TWIN BRIDGES     N/A     31  18  58 CALM      30.57S
$$

MTZ009-010-012-014-046-048-049-054-241100-
EAST SLOPES AND CENTRAL MONTANA

CITY           SKY/WX    TMP DP  RH WIND       PRES   REMARKS
CUT BANK       CLEAR     46  27  47 W23G31    30.39F
GREAT FALLS    CLEAR     43  27  53 SW17      30.46F
MALMSTROM AFB  CLEAR     40  28  62 SW17      30.46F
HELENA         CLEAR     47  25  42 W9        30.60F
BOWMANS CRNR     N/A     38  27  63 S16       30.48F WCI  29
CHOTEAU          N/A     46  27  46 SW8G14    30.46F
FAIRFIELD        N/A     40  26  56 S6        30.44F
POWER            N/A     41  27  57 SW14      30.43F
RAYNESFORD       N/A     46  26  44 SW10      30.48R
ULM              N/A     38  28  66 S8        30.49S
$$

MTZ011-013-016-021-045-047-050-051-241100-
NORTH CENTRAL MONTANA

CITY           SKY/WX    TMP DP  RH WIND       PRES   REMARKS
HAVRE          CLEAR     39  27  62 SW18      30.39F WCI  30
LEWISTOWN      CLEAR     30  21  69 CALM      30.46F
N BAR RANCH      N/A     28  19  69 CALM      30.49F
CHINOOK          N/A     28  25  86 NE5       30.39F
DENTON           N/A     34  23  64 S13       30.41F WCI  25
GEYSER           N/A     44  26  48 W12G20    30.44F
GRASS RANGE      N/A     36  23  60 SW9       30.42F WCI  29
STANFORD         N/A     40  24  52 SW3       30.44F
WINIFRED         N/A     42  24  48 SW10G17   30.43F
$$

MTZ017>020-022>027-061-062-241100-
NORTHEAST MONTANA

CITY           SKY/WX    TMP DP  RH WIND       PRES   REMARKS
GLASGOW        CLEAR     30  23  75 NW5       30.41F
JORDAN           N/A     25  20  81 W7        30.44F WCI  17
SIDNEY         CLEAR     34  24  67 S5        30.41S
WOLF POINT     CLEAR     29  22  75 SW3       30.43F
MALTA          CLEAR     27  23  86 W8        30.41F WCI  18
PLENTYWOOD       N/A     34  25  69 CALM      30.38S
POPLAR           N/A     30  21  69 W3        30.43S
SCOBEY           N/A     22  11  62 CALM      30.35
$$

MTZ028>42-056>058-241100-
SOUTHCENTRAL AND SOUTHEAST MONTANA

CITY           SKY/WX    TMP DP  RH WIND       PRES   REMARKS
BAKER          CLEAR     31  24  75 W9        30.43F WCI  23
BILLINGS       CLOUDY    38  22  52 SW12      30.51F WCI  30
LIVINGSTON     CLOUDY    43  20  39 W20       30.56F
MILES CITY     CLEAR     29  24  82 CALM      30.46F
BIG TIMBER     CLEAR     46  19  34 W38G47    30.50S
EKALAKA          N/A     31  19  61 NW1       30.38
FORSYTH          N/A     34  21  60 CALM      30.46F
HARLOWTON        N/A     42  25  50 NW23G29   30.49F
LAUREL           N/A     34  21  60 SW9       30.52F WCI  26
$$

REGIONAL REPORTS...DAKOTAS

CITY           SKY/WX    TMP DP  RH WIND       PRES   REMARKS
WILLISTON      CLEAR     33  25  72 CALM      30.39S
MINOT          CLEAR     35  29  78 W12       30.31F WCI  27
DICKINSON      CLEAR     29  24  82 W12       30.36F WCI  19
BEACH            N/A     34  21  60 W10       30.43F WCI  26
CROSBY           N/A     34  28  80 W9        30.36F WCI  26
TIOGA            N/A     28  28 100 W5        30.36F
WATFORD CITY     N/A     32  27  80 SW8       30.38S WCI  25
BISMARCK       CLEAR     35  30  82 SW5       30.33R
GRAND FORKS    CLEAR     33  29  85 NW14      30.17S WCI  23
FARGO          PTCLDY    33  29  85 NW17      30.14S WCI  22
BUFFALO SD       N/A     34  24  67 NW15      30.35F WCI  24
RAPID CITY     CLEAR     37  21  52 NW12      30.44S WCI  29
$$

REGIONAL REPORTS...WYOMING/IDAHO/WASHINGTON

CITY           SKY/WX    TMP DP  RH WIND       PRES   REMARKS
GILLETTE       CLEAR     32  19  58 W9        30.50F WCI  24
SHERIDAN       CLEAR     28  20  71 CALM      30.51F
BUFFALO WY     CLOUDY    34  15  46 W8        30.53F WCI  27
CODY           CLOUDY    29  19  66 CALM      30.55F
YELLOWSTONE LA   N/A     21  32 100 CALM      30.71S
IDAHO FALLS    CLOUDY    33  31  92 SW8       30.70R WCI  26
SALMON         CLEAR     27  24  89 CALM      30.75F
BOISE          CLEAR     40  35  83 S5        30.67S
$$

REGIONAL REPORTS...ALBERTA

CITY           SKY/WX    TMP DP  RH WIND       PRES   REMARKS
EDMONTON       CLEAR     45  27  49 SW9       30.05F
CALGARY        MOCLDY    54  23  30 W16G24    30.26F
LETHBRIDGE     CLEAR     50  28  43 W25G35    30.32F
MEDICINE HAT   MOCLDY    37  30  75 SW7       30.32F
$$

REGIONAL REPORTS...SASKATCHEWAN

CITY           SKY/WX    TMP DP  RH WIND       PRES   REMARKS
SWIFT CURRENT  CLEAR     34  23  64 SW14      30.30F WCI  24
REGINA         CLEAR     25  23  93 S5        30.33F
SASKATOON      CLEAR     27  23  86 S6        30.28F WCI  20
$$



USA.gov is the U.S. government's official web portal to all federal, state and local government web resources and services.